Regional Weather Roundup
Issued by NWS Austin/San Antonio, TX

Current Version | Previous Version | Text Only | Print | Product List | Glossary On
Versions: 1 2 3 4 5 6 7 8 9 10 11 12 13 14 15 16 17 18 19 20 21 22 23 24 25 26 27 28 29 30 31 32 33 34 35 36 37 38 39 40 41 42 43 44 45 46 47 48 49 50
000
ASUS44 KEWX 230902
RWREWX
SOUTH TEXAS REGIONAL WEATHER ROUNDUP
NATIONAL WEATHER SERVICE AUSTIN/SAN ANTONIO TX
400 AM CDT FRI OCT 23 2020

NOTE: "FAIR" INDICATED FEW OR NO CLOUDS BELOW 12,000 FEET WITH NO
SIGNIFICANT WEATHER AND/OR OBSTRUCTIONS TO VISIBILITY.

* - THESE STATIONS ARE NOT NWS OR FAA STATIONS...AND ARE NOT SUBJECT
    TO NWS AND FAA QUALITY CONTROL.

TXZ171-172-183>190-231000-
TEXAS HILL COUNTRY AND EDWARDS PLATEAU

CITY           SKY/WX    TMP DP  RH WIND       PRES   REMARKS
JUNCTION       MOCLDY    72  67  84 S3        29.93S
*LLANO         CLOUDY    75  68  78 SE6       29.92S
BURNET         CLOUDY    74  67  78 S7        29.95F
*HORSESHOE BAY CLOUDY    75  68  78 S7        29.93F
*LAGO VISTA    CLOUDY    71  69  93 CALM      29.95S
*KERRVILLE     CLOUDY    72  67  84 S8        29.95S
*FREDERICKSBRG CLOUDY    72  66  80 S7        29.95S
*ROCKSPRINGS   CLOUDY    70  66  88 S15       30.00S
*BOERNE        CLOUDY    72  70  94 S8        29.95F
*CASTROVILLE   CLOUDY    78  70  77 SE8       29.94S
HONDO          CLOUDY    75  68  78 SE10      29.92F
*UVALDE        CLOUDY    73  71  93 SE9       29.94S
DEL RIO        CLOUDY    76  68  76 E9        29.88S
*LAUGHLIN AFB  CLOUDY    73  68  83 SE10      29.89S
*SPOFFORD      CLEAR    N/A N/A N/A SE8       29.84S
*EAGLE PASS    NOT AVBL
CARRIZO SPRGS  MOCLDY    73  72  94 SE7       29.89S
*FAITH RANCH   MOCLDY    75  72  88 SE9       29.90F
$$

TXZ173-191>194-202-209-217>225-228-231000-
CENTRAL AND SOUTH CENTRAL TEXAS

CITY           SKY/WX    TMP DP  RH WIND       PRES   REMARKS
GEORGETOWN     CLOUDY    74  69  85 S8        29.95S
*TAYLOR        CLOUDY    73  70  90 S5        29.93S
AUSTIN/BERGSTM CLOUDY    75  72  90 SE5       29.92S
AUSTIN/MABRY   CLOUDY    76  70  82 VRB3      29.93F
*PFLUGERVILLE  CLOUDY    73  72  94 CALM      29.94S FOG
SAN MARCOS     CLOUDY    74  73  97 SE6       29.93F
NEW BRAUNFELS  CLOUDY    77  71  82 S8        29.91S
*RANDOLPH AFB  CLOUDY    75  71  87 S8        29.92S
*SEGUIN        CLOUDY    73  71  92 S5        29.96S
SAN ANTONIO    CLOUDY    75  70  84 SE7       29.93S
STINSON FIELD  CLOUDY    74  71  91 SE6       29.90F
*KELLY FIELD   PTCLDY    75  72  88 SE9       29.90F
*PLEASANTON    CLOUDY    76  73  90 SE6       29.91F
*KENEDY        MOCLDY    76  73  92 SE6       29.91F
*LA GRANGE     CLOUDY    76  76 100 S5        29.91S
*GIDDINGS      MOCLDY    76  73  92 S3        29.94S
*GONZALES      CLOUDY    76  75  99 S5        29.91S
$$

TXZ163>164-176>182-195>201-210>213-226-227-235-231000-
SOUTHEAST TEXAS

CITY           SKY/WX    TMP DP  RH WIND       PRES   REMARKS
COLLEGE STN    CLOUDY    75  73  93 S7        29.93S
*BRYAN         CLOUDY    73  73 100 SE6       29.94F
*CALDWELL      CLOUDY    75 N/A N/A SE5       29.93F
*CROCKETT      NOT AVBL
*BRENHAM       CLOUDY    74  73  98 S3        29.94S
HUNTSVILLE     CLOUDY    77  71  82 CALM      29.94S
CONROE         CLOUDY    75  73  93 SE6       29.94S
HOUSTON BUSH   PTCLDY    74  73  97 CALM      29.92S
HOUSTON HOBBY  PTCLDY    76  73  91 SE3       29.91F
*HOUSTON SW AP PTCLDY    71  70  99 CALM      29.93S FOG
PEARLAND       MOCLDY    74  71  91 CALM      29.93S FOG
HOUSTON HOOKS  FOG       71  69  93 CALM      29.92F VSB 1/2
ELLINGTON FLD  MOCLDY    75  73  94 SE5       29.91F
SUGAR LAND     CLOUDY    75  74  96 CALM      29.91F
*HOUSTON EXEC  MOCLDY    75  75 100 CALM      29.93S
*CLEVELAND MUN CLOUDY    75  74  96 CALM      29.95S FOG
*WHARTON       PTCLDY    71  70  96 CALM      29.92F FOG
*COLUMBUS      NOT AVBL
*EAGLE LAKE    CLEAR     72  70  96 CALM      29.92S FOG
$$

TXZ214>216-236>238-231000-
THE UPPER TEXAS COAST

CITY           SKY/WX    TMP DP  RH WIND       PRES   REMARKS
*ORANGE        MOCLDY    77  74  90 SE3       29.95S
PORT ARTHUR    MOCLDY    75  74  96 E7        29.92S
GALVESTON      CLOUDY    79  74  84 SE6       29.92S
ANGLETON       PTCLDY    72  70  93 CALM      29.91S
*BAY CITY      LGT RAIN  72  71  98 CALM      29.91S
PALACIOS       CLEAR     74  74 100 NE3       29.90S FOG
$$

TXZ229>234-239>247-231000-
TEXAS COASTAL BEND AND RIO GRANDE PLAINS

CITY           SKY/WX    TMP DP  RH WIND       PRES   REMARKS
VICTORIA       FOG       72  71  97 NE3       29.91S VSB 1/4
*BEEVILLE      NOT AVBL
ROCKPORT       PTCLDY    77  75  93 SE6       29.89R
*PORT ARANSAS  PTCLDY    79  75  89 SE7       29.90F
*PORT LAVACA     N/A     77  73  88 CALM      29.90S FOG
*INGLESIDE     CLEAR    N/A N/A N/A S3        29.88S
CORPUS CHRISTI NOT AVBL
CORPUS NAS     NOT AVBL
*ROBSTOWN      PTCLDY    74  73  98 E3        29.89S
ALICE          FOG       73  73 100 NE3       29.88F VSB 1/4
KINGSVILLE NAS FOG       72  71  97 NE3       29.88S VSB 1/2
COTULLA        CLOUDY    76  72  87 SE7       29.89F
LAREDO         CLOUDY    77  73  87 SE12      29.87F
$$

TXZ248>255-231000-
DEEP SOUTH TEXAS

CITY           SKY/WX    TMP DP  RH WIND       PRES   REMARKS
BROWNSVILLE    CLEAR     75  73  93 SE3       29.87S
PORT ISABEL    CLEAR     76  74  93 SE3       29.86F
HARLINGEN      FOG       71  71 100 SE5       29.86F VSB 3/4
*HEBBRONVILLE  CLOUDY    74  72  92 SE8       29.91S
MCALLEN        CLEAR     79  72  79 SE8       29.87F
*WESLACO       CLOUDY    75  72  92 CALM      29.86F
FALFURRIAS     CLOUDY    69  69 100 CALM      29.88S VSB 1/2
EDINBURG       CLEAR     64  63  95 CALM      29.87F FOG
*ZAPATA        NOT AVBL
$$

TXZ213>215-236>238-242>244-246-247-251-254-255-231000-
CMAN STATIONS

STATION/POSITION TIME  TEMP    WIND        PRES    WAVE
                       AIR SEA DIR/SP/G            HT/PER
                 (UTC) (F)     (DEG/KT/KT) (MB)    (FT/S)
NORTH JETTY/GLS  0830   83 78  130/  8/  9 1011.8
EAGLE POINT      0830   78 80  120/  6/  8 1012.6
MORGANS POINT    0830   78 80  110/  8/  9 1013.0
PORT O`CONNOR    0824   78 83  150/  7/  8 1011.8
PORT ARANSAS     0800   79 80  130/  9/ 10 1011.9
MALAQUITE BEACH  0830   79     120/ 10/ 11   N/A
BAFFIN BAY       0830   79 83  110/  7/  9 1011.3
PORT ISABEL      0830   80 83  160/  7/  8 1013.3
$$



USA.gov is the U.S. government's official web portal to all federal, state and local government web resources and services.